FW3160 Weather Reports


Display with metric or nautical units.
time (UTC)temp
F
wind
direction
speed
MPH
gust
MPH
rain 1hr
in
rain 24hr
in
rain mn
in
humidity
%
barometer
mb
20260504044525 93 273 1.0 6.0 0.00 0.00 0.00 58 1006.5
20260504043035 92 254 2.0 8.0 0.00 0.00 0.00 58 1006.8
20260504041521 92 299 2.0 7.0 0.00 0.00 0.00 62 1006.8
20260504040024 92 298 2.0 5.0 0.00 0.00 0.00 62 1007.0
20260504034517 91 262 2.0 6.0 0.00 0.00 0.00 60 1007.2
20260504033014 90 254 2.0 5.0 0.00 0.00 0.00 65 1007.2
20260504031512 89 229 4.0 8.0 0.00 0.00 0.00 63 1007.4
20260504030016 88 319 3.0 5.0 0.00 0.00 0.00 66 1007.5
20260504024508 87 345 0.0 4.0 0.00 0.00 0.00 66 1007.5
20260504023008 86 346 2.0 4.0 0.00 0.00 0.00 66 1007.8
20260504020057 85 354 1.0 3.0 0.00 0.00 0.00 72 1007.7
20260504014543 83 354 0.0 2.0 0.00 0.00 0.00 77 1007.7
20260504013036 82 354 0.0 2.0 0.00 0.00 0.00 78 1007.7
20260504011526 81 4 0.0 3.0 0.00 0.00 0.00 81 1007.6
20260504010022 80 4 0.0 0.0 0.00 0.00 0.00 79 1007.3
20260504004519 79 4 0.0 1.0 0.00 0.00 0.00 82 1007.2
20260504003016 78 4 0.0 1.0 0.00 0.00 0.00 84 1007.1
20260504001513 76 4 0.0 0.0 0.00 0.00 0.00 87 1006.8
20260504000012 75 4 0.0 0.0 0.00 0.00 0.00 89 1006.7
20260503234511 73 4 0.0 0.0 0.00 0.00 0.00 89 1006.6
20260503233018 73 4 0.0 0.0 0.00 0.00 0.00 89 1006.5
20260503231507 73 4 0.0 0.0 0.00 0.00 0.00 89 1006.5
20260503230006 73 4 0.0 0.0 0.00 0.00 0.00 89 1006.3
20260503224505 73 4 0.0 0.0 0.00 0.00 0.00 88 1006.2
20260503223002 73 4 0.0 0.0 0.00 0.00 0.00 89 1006.0
20260503221604 73 4 0.0 0.0 0.00 0.00 0.00 88 1005.8
20260503220056 73 4 0.0 2.0 0.00 0.00 0.00 88 1005.5
20260503214558 73 4 0.0 0.0 0.00 0.00 0.00 87 1005.3
20260503213053 73 4 0.0 1.0 0.00 0.00 0.00 87 1005.0
20260503211549 74 4 0.0 0.0 0.00 0.00 0.00 88 1004.9
20260503210051 74 4 0.0 1.0 0.00 0.00 0.00 87 1004.9
20260503204550 74 4 0.0 0.0 0.00 0.00 0.00 87 1004.8
20260503203103 74 4 0.0 0.0 0.00 0.00 0.00 87 1004.7
20260503201546 74 4 0.0 1.0 0.00 0.00 0.00 86 1004.8
20260503200044 74 4 0.0 0.0 0.00 0.00 0.00 86 1004.8
20260503194544 74 4 0.0 1.0 0.00 0.00 0.00 86 1005.1
20260503193042 75 4 0.0 1.0 0.00 0.00 0.00 86 1005.0
20260503191546 74 4 0.0 1.0 0.00 0.00 0.00 85 1005.0
20260503190042 75 4 0.0 0.0 0.00 0.00 0.00 86 1005.1
20260503184535 75 4 0.0 2.0 0.00 0.00 0.00 86 1005.2
20260503183034 76 4 0.0 0.0 0.00 0.00 0.00 86 1005.1
20260503181535 76 4 0.0 0.0 0.00 0.00 0.00 86 1005.3
20260503180034 76 4 0.0 2.0 0.00 0.00 0.00 86 1005.4
20260503174531 77 4 0.0 2.0 0.00 0.00 0.00 86 1005.3
20260503173028 77 4 0.0 3.0 0.00 0.00 0.00 86 1005.3
20260503171525 77 4 0.0 1.0 0.00 0.00 0.00 86 1005.4
20260503081600 95 258 0.0 4.0 0.00 0.00 0.00 54 1001.7
20260503071546 94 242 4.0 8.0 0.00 0.00 0.00 52 1002.8